Perryton, TX

1:08 AM CDT on May 28, 2017 (GMT -0500)
Perryton Ochiltree County

Weather History for KPYX - November, 2012

Change the Weather History Date:

Saturday, November 17, 2012

  Actual Average Record
Temperature  
Mean Temperature 56 °F -  
Max Temperature 69 °F 57 °F 81 °F (1966)
Min Temperature 42 °F 29 °F 5 °F (2014)
Degree Days  
Heating Degree Days 10    
Growing Degree Days 6 (Base 50)    
Moisture  
Dew Point 37 °F    
Average Humidity 57    
Maximum Humidity 76    
Minimum Humidity 33    
Precipitation  
Precipitation 0.00 in - - ()
Sea Level Pressure  
Sea Level Pressure 30.17 in    
Wind  
Wind Speed 15 mph (South)    
Max Wind Speed 26 mph    
Max Gust Speed 32 mph    
Visibility 10 miles    
Events      
Averages and records for this station are not official NWS values.
T = Trace of Precipitation, MM = Missing Value Source: NWS Daily Summary

Daily Weather History Graph

Daily Weather History Graph

Search for Another Location

Airport or City:

Trip Planner

Search our weather history database for the weather conditions in past years. The results will help you decide how hot, cold, wet, or windy it might be!

Date:

Astronomy

Nov. 17, 2012 Rise Set
Actual Time 7:22 AM CST 5:32 PM CST
Civil Twilight 6:55 AM CST 6:00 PM CST
Nautical Twilight 6:24 AM CST 6:31 PM CST
Astronomical Twilight 5:53 AM CST 7:02 PM CST
Moon 11:08 AM CST (11/17) 9:44 PM CST (11/17)
Length of Visible Light 11h 05m
Length of Day
10h 09m
Waxing Crescent, 20% of the Moon is Illuminated
Nov 17
Waxing Crescent
Nov 20
First Quarter
Nov 28
Full
Dec 6
Last Quarter
Dec 13
New

Hourly Weather History & Observations

Time (CST) Temp. Windchill Dew Point Humidity Pressure Visibility Wind Dir Wind Speed Gust Speed Precip Events Conditions
12:15 AM 42.8 °F 36.2 °F 32.0 °F 66% 30.24 in 10.0 mi South 12.7 mph - N/A   Clear
12:35 AM 42.8 °F 36.6 °F 32.0 °F 66% 30.24 in 10.0 mi SSE 11.5 mph - N/A   Clear
12:55 AM 42.8 °F 35.8 °F 32.0 °F 66% 30.23 in 10.0 mi South 13.8 mph - N/A   Clear
1:15 AM 44.6 °F 37.8 °F 32.0 °F 61% 30.23 in 10.0 mi South 15.0 mph - N/A   Clear
1:35 AM 44.6 °F 37.8 °F 32.0 °F 61% 30.23 in 10.0 mi South 15.0 mph - N/A   Clear
1:55 AM 44.6 °F 37.2 °F 32.0 °F 61% 30.23 in 10.0 mi South 17.3 mph - N/A   Clear
2:15 AM 42.8 °F 35.1 °F 32.0 °F 66% 30.22 in 10.0 mi South 16.1 mph - N/A   Clear
2:35 AM 42.8 °F 36.2 °F 32.0 °F 66% 30.22 in 10.0 mi South 12.7 mph - N/A   Clear
2:55 AM 42.8 °F 36.6 °F 32.0 °F 66% 30.22 in 10.0 mi South 11.5 mph - N/A   Clear
3:15 AM 42.8 °F 35.8 °F 32.0 °F 66% 30.21 in 10.0 mi South 13.8 mph - N/A   Clear
3:35 AM 42.8 °F 35.4 °F 33.8 °F 70% 30.21 in 10.0 mi South 15.0 mph - N/A   Clear
3:55 AM 42.8 °F 35.4 °F 33.8 °F 70% 30.21 in 10.0 mi South 15.0 mph - N/A   Clear
4:15 AM 44.6 °F 37.2 °F 33.8 °F 66% 30.21 in 10.0 mi South 17.3 mph 21.9 mph N/A   Clear
4:35 AM 44.6 °F 37.4 °F 33.8 °F 66% 30.21 in 10.0 mi South 16.1 mph - N/A   Clear
4:55 AM 44.6 °F 37.4 °F 33.8 °F 66% 30.19 in 10.0 mi South 16.1 mph - N/A   Clear
5:15 AM 42.8 °F 35.8 °F 33.8 °F 70% 30.19 in 10.0 mi South 13.8 mph - N/A   Clear
5:35 AM 42.8 °F 35.8 °F 33.8 °F 70% 30.19 in 10.0 mi South 13.8 mph - N/A   Clear
5:55 AM 42.8 °F 35.4 °F 33.8 °F 70% 30.19 in 10.0 mi South 15.0 mph - N/A   Clear
6:15 AM 42.8 °F 35.8 °F 33.8 °F 70% 30.19 in 10.0 mi South 13.8 mph - N/A   Clear
6:35 AM 42.8 °F 35.8 °F 33.8 °F 70% 30.19 in 10.0 mi South 13.8 mph - N/A   Clear
6:55 AM 42.8 °F 35.8 °F 33.8 °F 70% 30.19 in 10.0 mi South 13.8 mph - N/A   Clear
7:15 AM 42.8 °F 36.2 °F 35.6 °F 76% 30.21 in 10.0 mi South 12.7 mph - N/A   Clear
7:35 AM 42.8 °F 36.2 °F 35.6 °F 76% 30.21 in 10.0 mi South 12.7 mph 17.3 mph N/A   Clear
7:55 AM 42.8 °F 35.4 °F 35.6 °F 76% 30.21 in 10.0 mi South 15.0 mph 20.7 mph N/A   Clear
8:15 AM 44.6 °F 38.1 °F 35.6 °F 71% 30.21 in 10.0 mi South 13.8 mph - N/A   Clear
8:35 AM 46.4 °F 40.4 °F 37.4 °F 71% 30.21 in 10.0 mi South 13.8 mph 19.6 mph N/A   Clear
8:55 AM 48.2 °F - 37.4 °F 66% 30.21 in 10.0 mi South 16.1 mph 20.7 mph N/A   Clear
9:15 AM 51.8 °F - 39.2 °F 62% 30.22 in 10.0 mi SSW 19.6 mph 24.2 mph N/A   Clear
9:35 AM 51.8 °F - 41.0 °F 67% 30.22 in 10.0 mi SSW 20.7 mph 28.8 mph N/A   Clear
9:55 AM 53.6 °F - 41.0 °F 62% 30.22 in 10.0 mi SSW 20.7 mph - N/A   Clear
10:15 AM 55.4 °F - 41.0 °F 58% 30.22 in 10.0 mi SSW 20.7 mph 27.6 mph N/A   Clear
10:35 AM 59.0 °F - 42.8 °F 55% 30.22 in 10.0 mi SSW 26.5 mph 32.2 mph N/A   Clear
11:55 AM 62.6 °F - 42.8 °F 48% 30.18 in 10.0 mi SSW 21.9 mph 26.5 mph N/A   Clear
12:15 PM 64.4 °F - 41.0 °F 42% 30.17 in 10.0 mi SSW 20.7 mph 28.8 mph N/A   Clear
12:35 PM 64.4 °F - 41.0 °F 42% 30.16 in 10.0 mi SSW 23.0 mph 27.6 mph N/A   Clear
12:55 PM 64.4 °F - 41.0 °F 42% 30.14 in 10.0 mi SSW 20.7 mph 32.2 mph N/A   Clear
1:15 PM 66.2 °F - 41.0 °F 40% 30.13 in 10.0 mi South 19.6 mph 29.9 mph N/A   Clear
1:35 PM 68.0 °F - 41.0 °F 37% 30.13 in 10.0 mi SSW 23.0 mph 27.6 mph N/A   Clear
1:55 PM 68.0 °F - 41.0 °F 37% 30.13 in 10.0 mi SSW 19.6 mph 31.1 mph N/A   Clear
2:15 PM 68.0 °F - 39.2 °F 35% 30.12 in 10.0 mi SSW 20.7 mph 26.5 mph N/A   Clear
2:35 PM 69.8 °F - 39.2 °F 33% 30.12 in 10.0 mi SSW 21.9 mph 28.8 mph N/A   Clear
2:55 PM 68.0 °F - 39.2 °F 35% 30.11 in 10.0 mi SSW 19.6 mph 26.5 mph N/A   Clear
3:15 PM 68.0 °F - 39.2 °F 35% 30.11 in 10.0 mi South 19.6 mph 26.5 mph N/A   Clear
3:35 PM 68.0 °F - 41.0 °F 37% 30.11 in 10.0 mi South 19.6 mph 27.6 mph N/A   Clear
3:55 PM 66.2 °F - 41.0 °F 40% 30.11 in 10.0 mi South 19.6 mph 26.5 mph N/A   Clear
4:15 PM 64.4 °F - 41.0 °F 42% 30.11 in 10.0 mi South 20.7 mph 26.5 mph N/A   Clear
4:35 PM 64.4 °F - 41.0 °F 42% 30.11 in 10.0 mi South 20.7 mph - N/A   Clear
4:55 PM 62.6 °F - 39.2 °F 42% 30.12 in 10.0 mi South 15.0 mph 24.2 mph N/A   Clear
5:15 PM 60.8 °F - 39.2 °F 45% 30.11 in 10.0 mi South 16.1 mph 19.6 mph N/A   Clear
5:35 PM 59.0 °F - 39.2 °F 48% 30.11 in 10.0 mi South 12.7 mph - N/A   Clear
5:55 PM 59.0 °F - 39.2 °F 48% 30.11 in 10.0 mi South 13.8 mph - N/A   Clear
6:15 PM 59.0 °F - 41.0 °F 51% 30.12 in 10.0 mi South 15.0 mph - N/A   Clear
6:35 PM 57.2 °F - 41.0 °F 55% 30.12 in 10.0 mi South 13.8 mph - N/A   Clear
6:55 PM 55.4 °F - 39.2 °F 54% 30.12 in 10.0 mi South 11.5 mph - N/A   Clear
7:15 PM 55.4 °F - 39.2 °F 54% 30.12 in 10.0 mi SSE 11.5 mph - N/A   Clear
7:35 PM 53.6 °F - 41.0 °F 62% 30.12 in 10.0 mi SSE 12.7 mph - N/A   Clear
7:55 PM 53.6 °F - 41.0 °F 62% 30.12 in 10.0 mi SSE 13.8 mph - N/A   Clear
8:15 PM 53.6 °F - 39.2 °F 58% 30.12 in 10.0 mi SSE 15.0 mph - N/A   Clear
8:35 PM 53.6 °F - 39.2 °F 58% 30.14 in 10.0 mi SSE 13.8 mph - N/A   Clear
8:55 PM 53.6 °F - 37.4 °F 54% 30.14 in 10.0 mi SSE 12.7 mph - N/A   Clear
9:15 PM 53.6 °F - 37.4 °F 54% 30.14 in 10.0 mi South 15.0 mph - N/A   Clear
9:35 PM 53.6 °F - 37.4 °F 54% 30.13 in 10.0 mi South 16.1 mph 20.7 mph N/A   Clear
9:55 PM 53.6 °F - 35.6 °F 51% 30.13 in 10.0 mi South 16.1 mph - N/A   Clear
10:15 PM 53.6 °F - 35.6 °F 51% 30.12 in 10.0 mi South 17.3 mph - N/A   Clear
10:35 PM 53.6 °F - 35.6 °F 51% 30.13 in 10.0 mi South 15.0 mph - N/A   Clear
10:55 PM 53.6 °F - 35.6 °F 51% 30.12 in 10.0 mi South 12.7 mph - N/A   Clear
11:15 PM 51.8 °F - 35.6 °F 54% 30.12 in 10.0 mi South 12.7 mph - N/A   Clear
11:35 PM 51.8 °F - 35.6 °F 54% 30.12 in 10.0 mi South 11.5 mph - N/A   Clear
11:55 PM 51.8 °F - 37.4 °F 58% 30.12 in 10.0 mi South 10.4 mph - N/A   Clear